Regional Weather Roundup
Issued by NWS Goodland, KS

Home | Current Version | Previous Version | Text Only | Print | Product List | Glossary Off
Versions: 1 2 3 4 5 6 7 8 9 10 11 12 13 14 15 16 17 18 19 20 21 22 23 24 25 26 27 28 29 30 31 32 33 34 35 36 37 38 39 40 41 42 43 44 45 46 47 48 49 50

000
ASUS43 KGLD 191508
RWRGLD

GOODLAND FORECAST AREA HOURLY WEATHER ROUNDUP
NATIONAL WEATHER SERVICE GOODLAND KS
900 AM MDT FRI SEP 19 2014

...OFFICIAL OBSERVATIONS...

CITY           SKY/WX    TMP DP  RH WIND       PRES   REMARKS
GOODLAND KS    SUNNY     72  60  66 SW16      29.96S
HILL CITY KS   SUNNY     74  63  68 SW10      29.94S
IMPERIAL NEB   SUNNY     70  59  68 SW13      29.90S
MCCOOK NEB     SUNNY     69  64  84 S5        29.90F
AKRON CO       SUNNY     76  44  32 SW14      29.97R
BURLINGTON CO  SUNNY     71  58  63 SW20      29.99R
LIMON CO       SUNNY     64  52  64 SE8       30.03S
$$

...UNOFFICIAL OBSERVATIONS...

CITY           SKY/WX    TMP DP  RH WIND       PRES   REMARKS
COLBY KS       SUNNY     75  64  69 S16       29.96S
GOVE KS          N/A     72  32  23 MISG        N/A
NORTON KS      SUNNY     73  61  64 S9        29.92
SHARON SPRINGS   N/A     71  63  77 SW12G21     N/A
WAKEENEY KS      N/A     72  60  67 MISG        N/A
TRENTON NEB      N/A     68  32  26 SW8         N/A
KIT CARSON CO    N/A     58  55  91 CALM        N/A
YUMA CO          N/A     72  55  55 SW13G20     N/A
$$


USA.gov is the U.S. government's official web portal to all federal, state and local government web resources and services.